• In Portugal
  • List of Countries
  • For 7 days
  • Water Temperature
  • Satellite Maps
  • Weather Map
  • Weather Widgets
  • user-avatar
    Login

    Hourly Weather Göynük

    Today, 22 January, Monday

    Time Temperature Precipitation Wind Pressure Humidity
    00:00 +11°C° 3 mm 7 mps 744 mmHg 91%
    01:00 +11°C° 3 mm 8 mps 743 mmHg 90%
    02:00 +11°C° 0 mm 9 mps 741 mmHg 91%
    03:00 +10°C° 5.6 mm 9 mps 741 mmHg 90%
    04:00 +10°C° 5.6 mm 9 mps 740 mmHg 90%
    05:00 +10°C° 5.6 mm 8 mps 740 mmHg 90%
    06:00 +10°C° 3.2 mm 7 mps 740 mmHg 90%
    07:00 +10°C° 3.2 mm 6 mps 740 mmHg 91%
    08:00 +10°C° 3.2 mm 5 mps 739 mmHg 91%
    09:00 +12°C° 1.4 mm 5 mps 739 mmHg 90%
    10:00 +12°C° 1.4 mm 5 mps 739 mmHg 90%
    11:00 +13°C° 1.4 mm 5 mps 739 mmHg 89%
    12:00 +13°C° 0.8 mm 5 mps 739 mmHg 88%
    13:00 +13°C° 0.8 mm 5 mps 739 mmHg 87%
    14:00 +14°C° 0.8 mm 5 mps 739 mmHg 85%
    15:00 +13°C° 1.1 mm 5 mps 738 mmHg 87%
    16:00 +13°C° 1.1 mm 4 mps 738 mmHg 89%
    17:00 +12°C° 1.1 mm 4 mps 738 mmHg 91%
    18:00 +12°C° 1.8 mm 4 mps 738 mmHg 92%
    19:00 +12°C° 1.8 mm 3 mps 738 mmHg 93%
    20:00 +12°C° 1.8 mm 3 mps 738 mmHg 94%
    21:00 +11°C° 0.8 mm 3 mps 738 mmHg 94%
    22:00 +11°C° 0.8 mm 3 mps 738 mmHg 93%
    23:00 +11°C° 0.8 mm 3 mps 738 mmHg 93%

    Tomorrow, 23 January, Tuesday

    Time Temperature Precipitation Wind Pressure Humidity
    00:00 +11°C° 0.7 mm 3 mps 738 mmHg 92%
    01:00 +11°C° 0.7 mm 3 mps 738 mmHg 91%
    02:00 +11°C° 0.7 mm 3 mps 739 mmHg 89%
    03:00 +11°C° 0.1 mm 3 mps 739 mmHg 87%
    04:00 +11°C° 0.1 mm 3 mps 740 mmHg 85%
    05:00 +11°C° 0.1 mm 3 mps 740 mmHg 83%
    06:00 +11°C° 0 mm 3 mps 741 mmHg 81%
    07:00 +10°C° 0 mm 3 mps 742 mmHg 80%
    08:00 +10°C° 0 mm 4 mps 743 mmHg 78%
    09:00 +11°C° 0 mm 3 mps 743 mmHg 75%
    10:00 +12°C° 0 mm 3 mps 744 mmHg 71%
    11:00 +14°C° 0 mm 3 mps 745 mmHg 67%
    12:00 +14°C° 0 mm 3 mps 745 mmHg 66%
    13:00 +14°C° 0 mm 3 mps 745 mmHg 66%
    14:00 +14°C° 0 mm 3 mps 745 mmHg 66%
    15:00 +13°C° 0 mm 3 mps 745 mmHg 67%
    16:00 +12°C° 0 mm 3 mps 746 mmHg 69%
    17:00 +12°C° 0 mm 3 mps 746 mmHg 70%
    18:00 +11°C° 0 mm 4 mps 746 mmHg 70%
    19:00 +10°C° 0 mm 4 mps 747 mmHg 70%
    20:00 +8°C° 0 mm 4 mps 747 mmHg 70%
    21:00 +8°C° 0 mm 4 mps 748 mmHg 70%
    22:00 +8°C° 0 mm 5 mps 748 mmHg 69%
    23:00 +8°C° 0 mm 5 mps 749 mmHg 69%

    Day after tomorrow, 24 January, Wednesday

    Time Temperature Precipitation Wind Pressure Humidity
    00:00 +7°C° 0 mm 5 mps 749 mmHg 69%
    01:00 +7°C° 0 mm 5 mps 749 mmHg 68%
    02:00 +7°C° 0 mm 5 mps 749 mmHg 68%
    03:00 +7°C° 0.1 mm 5 mps 749 mmHg 68%
    04:00 +7°C° 0.1 mm 5 mps 749 mmHg 67%
    05:00 +7°C° 0.1 mm 5 mps 749 mmHg 67%
    06:00 +7°C° 0.1 mm 5 mps 749 mmHg 68%
    07:00 +7°C° 0.1 mm 5 mps 750 mmHg 68%
    08:00 +7°C° 0.1 mm 5 mps 750 mmHg 68%
    09:00 +7°C° 0.2 mm 5 mps 750 mmHg 68%
    10:00 +8°C° 0.2 mm 5 mps 751 mmHg 67%
    11:00 +8°C° 0.2 mm 5 mps 751 mmHg 67%
    12:00 +8°C° 0.4 mm 5 mps 751 mmHg 67%
    13:00 +8°C° 0.4 mm 5 mps 750 mmHg 67%
    14:00 +8°C° 0.4 mm 5 mps 750 mmHg 67%
    15:00 +8°C° 0.4 mm 5 mps 750 mmHg 68%
    16:00 +8°C° 0.4 mm 5 mps 750 mmHg 69%
    17:00 +7°C° 0.4 mm 5 mps 750 mmHg 71%
    18:00 +7°C° 0.2 mm 5 mps 750 mmHg 70%
    19:00 +7°C° 0.2 mm 5 mps 751 mmHg 70%
    20:00 +6°C° 0.2 mm 5 mps 751 mmHg 70%
    21:00 +6°C° 0.2 mm 5 mps 751 mmHg 70%
    22:00 +6°C° 0.2 mm 5 mps 751 mmHg 70%
    23:00 +6°C° 0.2 mm 5 mps 751 mmHg 69%

    25 January, Thursday

    Time Temperature Precipitation Wind Pressure Humidity
    00:00 +6°C° 0.2 mm 5 mps 751 mmHg 69%
    01:00 +5°C° 0.2 mm 5 mps 751 mmHg 69%
    02:00 +5°C° 0.2 mm 5 mps 751 mmHg 69%
    03:00 +5°C° 0.1 mm 5 mps 751 mmHg 68%
    04:00 +4°C° 0.1 mm 6 mps 751 mmHg 68%
    05:00 +3°C° 0.1 mm 6 mps 750 mmHg 68%
    06:00 +3°C° 0 mm 6 mps 751 mmHg 67%
    07:00 +3°C° 0 mm 6 mps 751 mmHg 66%
    08:00 +3°C° 0 mm 6 mps 751 mmHg 66%
    09:00 +4°C° 0 mm 6 mps 751 mmHg 63%
    10:00 +5°C° 0 mm 6 mps 751 mmHg 60%
    11:00 +7°C° 0 mm 6 mps 751 mmHg 57%
    12:00 +7°C° 0 mm 6 mps 750 mmHg 56%
    13:00 +7°C° 0 mm 6 mps 750 mmHg 54%
    14:00 +8°C° 0 mm 6 mps 749 mmHg 53%
    15:00 +7°C° 0 mm 6 mps 749 mmHg 54%
    16:00 +5°C° 0 mm 6 mps 749 mmHg 55%
    17:00 +4°C° 0 mm 6 mps 749 mmHg 57%
    18:00 +3°C° 0 mm 6 mps 749 mmHg 57%
    19:00 +3°C° 0 mm 6 mps 750 mmHg 56%
    20:00 +2°C° 0 mm 6 mps 750 mmHg 56%
    21:00 +2°C° 0 mm 6 mps 750 mmHg 56%
    22:00 +2°C° 0 mm 6 mps 750 mmHg 57%
    23:00 +1°C° 0 mm 6 mps 750 mmHg 57%

    26 January, Friday

    Time Temperature Precipitation Wind Pressure Humidity
    00:00 +1°C° 0 mm 6 mps 750 mmHg 57%
    01:00 +1°C° 0 mm 6 mps 750 mmHg 58%
    02:00 +1°C° 0 mm 6 mps 749 mmHg 59%
    03:00 +1°C° 0 mm 6 mps 749 mmHg 59%
    04:00 +1°C° 0 mm 6 mps 749 mmHg 60%
    05:00 +1°C° 0 mm 6 mps 749 mmHg 61%
    06:00 +1°C° 0 mm 6 mps 750 mmHg 61%
    07:00 +1°C° 0 mm 6 mps 750 mmHg 62%
    08:00 +1°C° 0 mm 6 mps 750 mmHg 62%
    09:00 +3°C° 0 mm 5 mps 750 mmHg 59%
    10:00 +5°C° 0 mm 5 mps 750 mmHg 55%
    11:00 +7°C° 0 mm 5 mps 750 mmHg 52%
    12:00 +7°C° 0 mm 5 mps 750 mmHg 51%
    13:00 +8°C° 0 mm 4 mps 750 mmHg 50%
    14:00 +8°C° 0 mm 4 mps 749 mmHg 50%
    15:00 +7°C° 0 mm 4 mps 749 mmHg 53%
    16:00 +7°C° 0 mm 4 mps 750 mmHg 55%
    17:00 +6°C° 0 mm 4 mps 750 mmHg 58%
    18:00 +5°C° 0 mm 4 mps 751 mmHg 59%
    19:00 +4°C° 0 mm 4 mps 751 mmHg 60%
    20:00 +4°C° 0 mm 4 mps 752 mmHg 61%
    21:00 +4°C° 0 mm 4 mps 752 mmHg 61%
    22:00 +4°C° 0 mm 4 mps 752 mmHg 61%
    23:00 +4°C° 0 mm 4 mps 753 mmHg 61%

    27 January, Saturday

    Time Temperature Precipitation Wind Pressure Humidity
    00:00 +4°C° 0 mm 4 mps 753 mmHg 60%
    01:00 +4°C° 0 mm 4 mps 753 mmHg 60%
    02:00 +4°C° 0 mm 4 mps 753 mmHg 59%
    03:00 +4°C° 0 mm 4 mps 753 mmHg 58%
    04:00 +4°C° 0 mm 4 mps 753 mmHg 58%
    05:00 +4°C° 0 mm 3 mps 753 mmHg 57%
    06:00 +5°C° 0 mm 3 mps 754 mmHg 57%
    07:00 +5°C° 0 mm 3 mps 754 mmHg 57%
    08:00 +7°C° 0 mm 3 mps 754 mmHg 57%
    09:00 +8°C° 0 mm 3 mps 754 mmHg 56%
    10:00 +10°C° 0 mm 2 mps 754 mmHg 56%
    11:00 +13°C° 0 mm 2 mps 754 mmHg 55%
    12:00 +14°C° 0 mm 2 mps 754 mmHg 55%
    13:00 +14°C° 0 mm 2 mps 754 mmHg 54%
    14:00 +15°C° 0 mm 2 mps 754 mmHg 54%
    15:00 +14°C° 0 mm 2 mps 754 mmHg 57%
    16:00 +13°C° 0 mm 2 mps 754 mmHg 59%
    17:00 +12°C° 0 mm 2 mps 754 mmHg 62%
    18:00 +10°C° 0 mm 2 mps 755 mmHg 62%
    19:00 +9°C° 0 mm 2 mps 755 mmHg 62%
    20:00 +9°C° 0 mm 2 mps 756 mmHg 61%
    21:00 +8°C° 0 mm 2 mps 756 mmHg 60%
    22:00 +8°C° 0 mm 2 mps 756 mmHg 58%
    23:00 +8°C° 0 mm 3 mps 756 mmHg 56%
    Show more